Torna al catalogo

FENGYUN 1C DEB

AttivoSSO
NORAD 30737·DEBRIS·🇨🇳 China

Lanciato May 10, 1999 da Taiyuan Satellite Launch Center

Loading…

Prossimi Passaggi (prossime 24 ore)

TLE

AggiornatoSource: Space-Track

Epoca: Sep 14, 2026, 10:23 UTC

1 30737U 99025ASX 26257.43293801  .00000337  00000-0  18301-3 0  9996
2 30737  98.6080 236.1642 0024594  59.5349  91.6993 14.18572298  9379

Traccia FENGYUN 1C DEB in tempo reale con AllMySat

Download on the App Store